Time,TemperatureF,DewpointF,PressureIn,WindDirection,WindDirectionDegrees,WindSpeedMPH,WindSpeedGustMPH,Humidity,HourlyPrecipIn,Conditions,Clouds,dailyrainin,SoftwareType,DateUTC
2013-08-11 00:01:00,67.0,58.8,30.02,North,5,0.0,0.0,75,0.00,,,0.00,Wunderground v.1.15,2013-08-11 05:01:00,
2013-08-11 00:06:00,67.0,58.8,30.02,North,5,0.0,2.0,75,0.00,,,0.00,Wunderground v.1.15,2013-08-11 05:06:00,
2013-08-11 00:12:00,67.0,58.8,30.02,North,5,1.0,1.0,75,0.00,,,0.00,Wunderground v.1.15,2013-08-11 05:12:00,
2013-08-11 00:18:00,66.9,58.7,30.02,North,5,0.0,1.0,75,0.00,,,0.00,Wunderground v.1.15,2013-08-11 05:18:00,
2013-08-11 00:24:00,66.8,58.6,30.02,North,5,0.0,0.0,75,0.00,,,0.00,Wunderground v.1.15,2013-08-11 05:24:00,
2013-08-11 00:30:00,66.5,58.7,30.01,North,5,0.0,0.0,76,0.00,,,0.00,Wunderground v.1.15,2013-08-11 05:30:00,
2013-08-11 00:35:00,66.2,58.4,30.02,North,5,0.0,0.0,76,0.00,,,0.00,Wunderground v.1.15,2013-08-11 05:35:00,
2013-08-11 00:40:00,66.0,58.2,30.02,North,5,0.0,0.0,76,0.00,,,0.00,Wunderground v.1.15,2013-08-11 05:40:00,
2013-08-11 00:46:00,65.8,58.4,30.02,North,5,0.0,0.0,77,0.00,,,0.00,Wunderground v.1.15,2013-08-11 05:46:00,
2013-08-11 00:52:00,65.5,58.1,30.02,North,5,0.0,0.0,77,0.00,,,0.00,Wunderground v.1.15,2013-08-11 05:52:00,
2013-08-11 00:58:00,64.9,58.2,30.02,North,5,0.0,0.0,79,0.00,,,0.00,Wunderground v.1.15,2013-08-11 05:58:00,
2013-08-11 01:04:00,64.0,58.1,30.02,North,5,0.0,0.0,81,0.00,,,0.00,Wunderground v.1.15,2013-08-11 06:04:00,
2013-08-11 01:10:00,63.5,57.9,30.02,North,5,0.0,0.0,82,0.00,,,0.00,Wunderground v.1.15,2013-08-11 06:10:00,
2013-08-11 01:15:00,63.4,58.1,30.02,North,5,0.0,1.0,83,0.00,,,0.00,Wunderground v.1.15,2013-08-11 06:15:00,
2013-08-11 01:21:00,63.2,57.9,30.02,North,5,0.0,0.0,83,0.00,,,0.00,Wunderground v.1.15,2013-08-11 06:21:00,
2013-08-11 01:26:00,62.9,58.0,30.02,North,5,0.0,0.0,84,0.00,,,0.00,Wunderground v.1.15,2013-08-11 06:26:00,
2013-08-11 01:32:00,62.5,57.6,30.02,North,5,0.0,0.0,84,0.00,,,0.00,Wunderground v.1.15,2013-08-11 06:32:00,
2013-08-11 01:38:00,62.1,57.2,30.02,North,5,0.0,0.0,84,0.00,,,0.00,Wunderground v.1.15,2013-08-11 06:38:00,
2013-08-11 01:44:00,61.6,57.0,30.02,North,5,0.0,0.0,85,0.00,,,0.00,Wunderground v.1.15,2013-08-11 06:44:00,
2013-08-11 01:50:00,61.1,56.9,30.02,North,5,0.0,0.0,86,0.00,,,0.00,Wunderground v.1.15,2013-08-11 06:50:00,
2013-08-11 01:55:00,60.7,56.5,30.02,North,5,0.0,0.0,86,0.00,,,0.00,Wunderground v.1.15,2013-08-11 06:55:00,
2013-08-11 02:01:00,60.4,56.5,30.02,North,5,0.0,0.0,87,0.00,,,0.00,Wunderground v.1.15,2013-08-11 07:01:00,
2013-08-11 02:06:00,60.4,56.5,30.02,North,5,0.0,0.0,87,0.00,,,0.00,Wunderground v.1.15,2013-08-11 07:06:00,
2013-08-11 02:12:00,60.0,56.1,30.02,North,5,0.0,0.0,87,0.00,,,0.00,Wunderground v.1.15,2013-08-11 07:12:00,
2013-08-11 02:17:00,59.8,56.2,30.02,North,5,0.0,1.0,88,0.00,,,0.00,Wunderground v.1.15,2013-08-11 07:17:00,
2013-08-11 02:23:00,59.5,55.9,30.02,North,5,0.0,2.0,88,0.00,,,0.00,Wunderground v.1.15,2013-08-11 07:23:00,
2013-08-11 02:29:00,59.5,56.6,30.02,North,5,1.0,2.0,90,0.00,,,0.00,Wunderground v.1.15,2013-08-11 07:29:00,
2013-08-11 02:35:00,59.7,56.8,30.02,North,5,1.0,1.0,90,0.00,,,0.00,Wunderground v.1.15,2013-08-11 07:35:00,
2013-08-11 02:41:00,60.0,57.1,30.02,North,5,0.0,0.0,90,0.00,,,0.00,Wunderground v.1.15,2013-08-11 07:41:00,
2013-08-11 02:46:00,60.2,56.9,30.01,North,5,0.0,0.0,89,0.00,,,0.00,Wunderground v.1.15,2013-08-11 07:46:00,
2013-08-11 02:52:00,60.5,57.2,30.02,North,5,1.0,4.0,89,0.00,,,0.00,Wunderground v.1.15,2013-08-11 07:52:00,
2013-08-11 02:59:00,60.8,57.2,30.02,North,5,3.0,4.0,88,0.00,,,0.00,Wunderground v.1.15,2013-08-11 07:59:00,
2013-08-11 03:04:00,60.8,57.2,30.02,North,5,2.0,3.0,88,0.00,,,0.00,Wunderground v.1.15,2013-08-11 08:04:00,
2013-08-11 03:09:00,60.5,56.9,30.01,North,5,2.0,4.0,88,0.00,,,0.00,Wunderground v.1.15,2013-08-11 08:09:00,
2013-08-11 03:15:00,60.4,57.1,30.01,North,5,4.0,4.0,89,0.00,,,0.00,Wunderground v.1.15,2013-08-11 08:15:00,
2013-08-11 03:21:00,60.4,57.1,30.02,North,5,4.0,4.0,89,0.00,,,0.00,Wunderground v.1.15,2013-08-11 08:21:00,
2013-08-11 03:26:00,60.1,56.2,30.02,North,5,2.0,4.0,87,0.00,,,0.00,Wunderground v.1.15,2013-08-11 08:26:00,
2013-08-11 03:32:00,59.6,56.4,30.02,North,5,0.0,1.0,89,0.00,,,0.00,Wunderground v.1.15,2013-08-11 08:32:00,
2013-08-11 03:37:00,59.2,56.3,30.02,North,5,0.0,1.0,90,0.00,,,0.00,Wunderground v.1.15,2013-08-11 08:37:00,
2013-08-11 03:43:00,58.9,56.0,30.02,North,5,0.0,0.0,90,0.00,,,0.00,Wunderground v.1.15,2013-08-11 08:43:00,
2013-08-11 03:48:00,58.8,56.2,30.02,North,5,0.0,0.0,91,0.00,,,0.00,Wunderground v.1.15,2013-08-11 08:48:00,
2013-08-11 03:54:00,58.9,56.6,30.03,North,5,1.0,2.0,92,0.00,,,0.00,Wunderground v.1.15,2013-08-11 08:54:00,
2013-08-11 03:59:00,58.9,56.6,30.02,North,5,1.0,2.0,92,0.00,,,0.00,Wunderground v.1.15,2013-08-11 08:59:00,
2013-08-11 04:04:00,59.0,56.7,30.02,North,5,1.0,3.0,92,0.00,,,0.00,Wunderground v.1.15,2013-08-11 09:04:00,
2013-08-11 04:09:00,58.9,56.6,30.02,North,5,1.0,3.0,92,0.00,,,0.00,Wunderground v.1.15,2013-08-11 09:09:00,
2013-08-11 04:15:00,58.9,56.6,30.02,North,5,0.0,1.0,92,0.00,,,0.00,Wunderground v.1.15,2013-08-11 09:15:00,
2013-08-11 04:20:00,59.0,57.0,30.02,North,5,0.0,0.0,93,0.00,,,0.00,Wunderground v.1.15,2013-08-11 09:20:00,
2013-08-11 04:26:00,59.1,57.1,30.02,North,5,0.0,0.0,93,0.00,,,0.00,Wunderground v.1.15,2013-08-11 09:26:00,
2013-08-11 04:32:00,59.1,57.1,30.02,North,5,0.0,0.0,93,0.00,,,0.00,Wunderground v.1.15,2013-08-11 09:32:00,
2013-08-11 04:38:00,59.3,57.3,30.02,North,5,0.0,0.0,93,0.00,,,0.00,Wunderground v.1.15,2013-08-11 09:38:00,
2013-08-11 04:43:00,59.5,57.5,30.01,North,5,0.0,0.0,93,0.00,,,0.00,Wunderground v.1.15,2013-08-11 09:43:00,
2013-08-11 04:49:00,59.7,57.7,30.01,North,5,0.0,0.0,93,0.00,,,0.00,Wunderground v.1.15,2013-08-11 09:49:00,
2013-08-11 04:54:00,60.0,58.0,30.01,North,5,0.0,0.0,93,0.00,,,0.00,Wunderground v.1.15,2013-08-11 09:54:00,
2013-08-11 05:00:00,60.2,57.9,30.01,North,5,0.0,0.0,92,0.00,,,0.00,Wunderground v.1.15,2013-08-11 10:00:00,
2013-08-11 05:05:00,60.3,58.0,30.01,North,5,0.0,0.0,92,0.00,,,0.00,Wunderground v.1.15,2013-08-11 10:05:00,
2013-08-11 05:11:00,60.6,58.0,30.01,North,5,0.0,0.0,91,0.00,,,0.00,Wunderground v.1.15,2013-08-11 10:11:00,
2013-08-11 05:16:00,60.9,57.9,30.01,North,5,0.0,0.0,90,0.00,,,0.00,Wunderground v.1.15,2013-08-11 10:16:00,
2013-08-11 05:22:00,61.1,57.8,30.01,North,5,0.0,0.0,89,0.00,,,0.00,Wunderground v.1.15,2013-08-11 10:22:00,
2013-08-11 05:28:00,61.1,57.5,30.00,North,5,0.0,0.0,88,0.00,,,0.00,Wunderground v.1.15,2013-08-11 10:28:00,
2013-08-11 05:34:00,61.0,57.4,30.01,North,5,0.0,0.0,88,0.00,,,0.00,Wunderground v.1.15,2013-08-11 10:34:00,
2013-08-11 05:40:00,61.0,57.4,30.01,North,5,0.0,0.0,88,0.00,,,0.00,Wunderground v.1.15,2013-08-11 10:40:00,
2013-08-11 05:45:00,60.8,57.2,30.01,North,5,0.0,0.0,88,0.00,,,0.00,Wunderground v.1.15,2013-08-11 10:45:00,
2013-08-11 05:51:00,59.9,56.3,30.02,North,5,2.0,2.0,88,0.00,,,0.00,Wunderground v.1.15,2013-08-11 10:51:00,
2013-08-11 05:57:00,58.9,56.0,30.02,North,5,2.0,3.0,90,0.00,,,0.00,Wunderground v.1.15,2013-08-11 10:57:00,
2013-08-11 06:02:00,58.8,56.5,30.02,North,5,1.0,1.0,92,0.00,,,0.00,Wunderground v.1.15,2013-08-11 11:02:00,
2013-08-11 06:08:00,58.7,56.4,30.02,North,5,0.0,1.0,92,0.00,,,0.00,Wunderground v.1.15,2013-08-11 11:08:00,
2013-08-11 06:13:00,58.6,56.3,30.02,North,5,0.0,0.0,92,0.00,,,0.00,Wunderground v.1.15,2013-08-11 11:13:00,
2013-08-11 06:19:00,58.7,56.7,30.02,North,5,0.0,0.0,93,0.00,,,0.00,Wunderground v.1.15,2013-08-11 11:19:00,
2013-08-11 06:25:00,58.9,56.9,30.02,North,5,0.0,0.0,93,0.00,,,0.00,Wunderground v.1.15,2013-08-11 11:25:00,
2013-08-11 06:31:00,59.2,57.2,30.02,North,5,0.0,0.0,93,0.00,,,0.00,Wunderground v.1.15,2013-08-11 11:31:00,
2013-08-11 06:36:00,59.6,57.3,30.02,North,5,0.0,0.0,92,0.00,,,0.00,Wunderground v.1.15,2013-08-11 11:36:00,
2013-08-11 06:41:00,60.0,57.7,30.02,North,5,0.0,0.0,92,0.00,,,0.00,Wunderground v.1.15,2013-08-11 11:41:00,
2013-08-11 06:47:00,60.2,57.6,30.02,North,5,0.0,0.0,91,0.00,,,0.00,Wunderground v.1.15,2013-08-11 11:47:00,
2013-08-11 06:53:00,60.4,57.5,30.01,North,5,0.0,0.0,90,0.00,,,0.00,Wunderground v.1.15,2013-08-11 11:53:00,
2013-08-11 06:58:00,60.7,57.7,30.01,North,5,0.0,0.0,90,0.00,,,0.00,Wunderground v.1.15,2013-08-11 11:58:00,
2013-08-11 07:03:00,61.1,58.1,30.02,North,5,0.0,0.0,90,0.00,,,0.00,Wunderground v.1.15,2013-08-11 12:03:00,
2013-08-11 07:08:00,61.3,58.0,30.02,North,5,0.0,0.0,89,0.00,,,0.00,Wunderground v.1.15,2013-08-11 12:08:00,
2013-08-11 07:14:00,61.6,58.0,30.02,North,5,0.0,0.0,88,0.00,,,0.00,Wunderground v.1.15,2013-08-11 12:14:00,
2013-08-11 07:20:00,62.2,58.9,30.02,North,5,0.0,0.0,89,0.00,,,0.00,Wunderground v.1.15,2013-08-11 12:20:00,
2013-08-11 07:26:00,63.1,59.8,30.02,North,5,0.0,0.0,89,0.00,,,0.00,Wunderground v.1.15,2013-08-11 12:26:00,
2013-08-11 07:31:00,63.5,60.5,30.02,North,5,0.0,0.0,90,0.00,,,0.00,Wunderground v.1.15,2013-08-11 12:31:00,
2013-08-11 07:36:00,63.7,60.4,30.02,North,5,0.0,0.0,89,0.00,,,0.00,Wunderground v.1.15,2013-08-11 12:36:00,
2013-08-11 07:41:00,64.2,60.2,30.03,North,5,0.0,0.0,87,0.00,,,0.00,Wunderground v.1.15,2013-08-11 12:41:00,
2013-08-11 07:47:00,64.4,60.1,30.03,North,5,0.0,0.0,86,0.00,,,0.00,Wunderground v.1.15,2013-08-11 12:47:00,
2013-08-11 07:52:00,64.6,60.6,30.03,North,5,0.0,0.0,87,0.00,,,0.00,Wunderground v.1.15,2013-08-11 12:52:00,
2013-08-11 07:57:00,64.7,60.7,30.03,North,5,0.0,0.0,87,0.00,,,0.00,Wunderground v.1.15,2013-08-11 12:57:00,
2013-08-11 08:03:00,65.2,61.2,30.03,North,5,0.0,0.0,87,0.00,,,0.00,Wunderground v.1.15,2013-08-11 13:03:00,
2013-08-11 08:09:00,65.7,61.7,30.03,North,5,0.0,1.0,87,0.00,,,0.00,Wunderground v.1.15,2013-08-11 13:09:00,
2013-08-11 08:15:00,66.1,62.1,30.03,North,5,0.0,0.0,87,0.00,,,0.00,Wunderground v.1.15,2013-08-11 13:15:00,
2013-08-11 08:21:00,66.5,62.2,30.03,North,5,0.0,0.0,86,0.00,,,0.00,Wunderground v.1.15,2013-08-11 13:21:00,
2013-08-11 08:26:00,66.8,62.1,30.03,North,5,0.0,0.0,85,0.00,,,0.00,Wunderground v.1.15,2013-08-11 13:26:00,
2013-08-11 08:32:00,67.3,62.0,30.03,North,5,0.0,0.0,83,0.00,,,0.00,Wunderground v.1.15,2013-08-11 13:32:00,
2013-08-11 08:37:00,67.8,61.4,30.03,North,5,0.0,0.0,80,0.00,,,0.00,Wunderground v.1.15,2013-08-11 13:37:00,
2013-08-11 08:43:00,68.7,63.0,30.03,North,5,0.0,0.0,82,0.00,,,0.00,Wunderground v.1.15,2013-08-11 13:43:00,
2013-08-11 08:48:00,69.2,62.4,30.03,North,5,0.0,0.0,79,0.00,,,0.00,Wunderground v.1.15,2013-08-11 13:48:00,
2013-08-11 08:53:00,69.6,63.2,30.03,North,5,0.0,0.0,80,0.00,,,0.00,Wunderground v.1.15,2013-08-11 13:53:00,
2013-08-11 08:59:00,70.1,62.2,30.03,North,5,0.0,0.0,76,0.00,,,0.00,Wunderground v.1.15,2013-08-11 13:59:00,
2013-08-11 09:05:00,70.5,61.8,30.03,North,5,0.0,1.0,74,0.00,,,0.00,Wunderground v.1.15,2013-08-11 14:05:00,
2013-08-11 09:11:00,71.2,63.2,30.02,North,5,0.0,1.0,76,0.00,,,0.00,Wunderground v.1.15,2013-08-11 14:11:00,
2013-08-11 09:16:00,71.9,63.2,30.02,North,5,0.0,1.0,74,0.00,,,0.00,Wunderground v.1.15,2013-08-11 14:16:00,
2013-08-11 09:21:00,72.1,62.2,30.02,North,5,0.0,0.0,71,0.00,,,0.00,Wunderground v.1.15,2013-08-11 14:21:00,
2013-08-11 09:26:00,72.4,62.5,30.02,North,5,0.0,0.0,71,0.00,,,0.00,Wunderground v.1.15,2013-08-11 14:26:00,
2013-08-11 09:32:00,72.6,62.3,30.02,North,5,0.0,2.0,70,0.00,,,0.00,Wunderground v.1.15,2013-08-11 14:32:00,
2013-08-11 09:38:00,72.5,61.3,30.02,North,5,1.0,2.0,68,0.00,,,0.00,Wunderground v.1.15,2013-08-11 14:38:00,
2013-08-11 09:43:00,72.8,62.4,30.02,North,5,1.0,2.0,70,0.00,,,0.00,Wunderground v.1.15,2013-08-11 14:43:00,
2013-08-11 09:49:00,73.0,62.2,30.02,WNW,294,1.0,4.0,69,0.00,,,0.00,Wunderground v.1.15,2013-08-11 14:49:00,
2013-08-11 09:54:00,73.1,62.3,30.02,WNW,288,2.0,3.0,69,0.00,,,0.00,Wunderground v.1.15,2013-08-11 14:54:00,
2013-08-11 10:00:00,73.2,63.6,30.03,WSW,246,3.0,6.0,72,0.00,,,0.00,Wunderground v.1.15,2013-08-11 15:00:00,
2013-08-11 10:06:00,73.3,63.7,30.03,WSW,239,4.0,6.0,72,0.00,,,0.00,Wunderground v.1.15,2013-08-11 15:06:00,
2013-08-11 10:11:00,73.6,62.0,30.02,SW,233,4.0,6.0,67,0.00,,,0.00,Wunderground v.1.15,2013-08-11 15:11:00,
2013-08-11 10:16:00,73.7,62.9,30.02,SW,234,4.0,6.0,69,0.00,,,0.00,Wunderground v.1.15,2013-08-11 15:16:00,
2013-08-11 10:22:00,74.1,64.9,30.03,SW,234,3.0,5.0,73,0.00,,,0.00,Wunderground v.1.15,2013-08-11 15:22:00,
2013-08-11 10:28:00,74.7,64.7,30.03,SW,234,2.0,5.0,71,0.00,,,0.00,Wunderground v.1.15,2013-08-11 15:28:00,
2013-08-11 10:33:00,75.0,64.1,30.03,SW,234,2.0,4.0,69,0.00,,,0.00,Wunderground v.1.15,2013-08-11 15:33:00,
2013-08-11 10:39:00,74.9,63.6,30.03,SW,234,2.0,4.0,68,0.00,,,0.00,Wunderground v.1.15,2013-08-11 15:39:00,
2013-08-11 10:45:00,75.4,64.9,30.03,SW,234,1.0,4.0,70,0.00,,,0.00,Wunderground v.1.15,2013-08-11 15:45:00,
2013-08-11 10:51:00,75.7,64.4,30.03,SW,234,1.0,1.0,68,0.00,,,0.00,Wunderground v.1.15,2013-08-11 15:51:00,
2013-08-11 10:57:00,75.7,63.5,30.03,SW,234,2.0,5.0,66,0.00,,,0.00,Wunderground v.1.15,2013-08-11 15:57:00,
2013-08-11 11:03:00,75.8,63.6,30.03,SW,234,2.0,3.0,66,0.00,,,0.00,Wunderground v.1.15,2013-08-11 16:03:00,
2013-08-11 11:09:00,75.8,63.6,30.02,SW,234,1.0,3.0,66,0.00,,,0.00,Wunderground v.1.15,2013-08-11 16:09:00,
2013-08-11 11:15:00,76.5,63.4,30.03,SW,233,1.0,4.0,64,0.00,,,0.00,Wunderground v.1.15,2013-08-11 16:15:00,
2013-08-11 11:20:00,77.1,62.6,30.03,SW,233,1.0,1.0,61,0.00,,,0.00,Wunderground v.1.15,2013-08-11 16:20:00,
2013-08-11 11:26:00,77.8,64.6,30.03,SW,233,0.0,2.0,64,0.00,,,0.00,Wunderground v.1.15,2013-08-11 16:26:00,
2013-08-11 11:32:00,78.5,64.9,30.03,SW,218,1.0,4.0,63,0.00,,,0.00,Wunderground v.1.15,2013-08-11 16:32:00,
2013-08-11 11:37:00,78.4,64.3,30.03,SW,218,1.0,4.0,62,0.00,,,0.00,Wunderground v.1.15,2013-08-11 16:37:00,
2013-08-11 11:43:00,78.6,64.9,30.02,SW,218,1.0,4.0,63,0.00,,,0.00,Wunderground v.1.15,2013-08-11 16:43:00,
2013-08-11 11:48:00,78.8,64.7,30.02,SW,217,1.0,4.0,62,0.00,,,0.00,Wunderground v.1.15,2013-08-11 16:48:00,
2013-08-11 11:54:00,79.0,65.8,30.02,SSW,208,2.0,9.0,64,0.00,,,0.00,Wunderground v.1.15,2013-08-11 16:54:00,
2013-08-11 12:00:00,78.1,64.0,30.02,SSW,208,3.0,3.0,62,0.00,,,0.00,Wunderground v.1.15,2013-08-11 17:00:00,
2013-08-11 12:05:00,77.8,65.5,30.02,South,190,3.0,6.0,66,0.00,,,0.00,Wunderground v.1.15,2013-08-11 17:05:00,
2013-08-11 12:11:00,77.4,64.3,30.02,SW,221,4.0,4.0,64,0.00,,,0.00,Wunderground v.1.15,2013-08-11 17:11:00,
2013-08-11 12:17:00,77.5,64.8,30.02,SW,219,3.0,4.0,65,0.00,,,0.00,Wunderground v.1.15,2013-08-11 17:17:00,
2013-08-11 12:23:00,77.8,65.5,30.02,SW,224,3.0,5.0,66,0.00,,,0.00,Wunderground v.1.15,2013-08-11 17:23:00,
2013-08-11 12:28:00,77.8,65.1,30.02,SSW,206,4.0,6.0,65,0.00,,,0.00,Wunderground v.1.15,2013-08-11 17:28:00,
2013-08-11 12:34:00,77.6,63.5,30.02,SSW,202,4.0,6.0,62,0.00,,,0.00,Wunderground v.1.15,2013-08-11 17:34:00,
2013-08-11 12:40:00,77.6,63.5,30.02,South,173,3.0,3.0,62,0.00,,,0.00,Wunderground v.1.15,2013-08-11 17:40:00,
2013-08-11 12:46:00,78.1,64.9,30.02,South,179,2.0,5.0,64,0.00,,,0.00,Wunderground v.1.15,2013-08-11 17:46:00,
2013-08-11 12:51:00,78.3,64.7,30.01,South,191,2.0,3.0,63,0.00,,,0.00,Wunderground v.1.15,2013-08-11 17:51:00,
2013-08-11 12:56:00,78.5,64.4,30.01,South,191,2.0,3.0,62,0.00,,,0.00,Wunderground v.1.15,2013-08-11 17:56:00,
2013-08-11 13:02:00,78.9,65.7,30.01,South,179,1.0,6.0,64,0.00,,,0.00,Wunderground v.1.15,2013-08-11 18:02:00,
2013-08-11 13:07:00,79.0,65.3,30.01,South,179,3.0,6.0,63,0.00,,,0.00,Wunderground v.1.15,2013-08-11 18:07:00,
2013-08-11 13:13:00,78.7,64.1,30.00,SW,217,4.0,7.0,61,0.00,,,0.00,Wunderground v.1.15,2013-08-11 18:13:00,
2013-08-11 13:19:00,78.5,64.9,30.00,SW,223,4.0,7.0,63,0.00,,,0.00,Wunderground v.1.15,2013-08-11 18:19:00,
2013-08-11 13:25:00,78.7,65.0,30.00,South,177,2.0,5.0,63,0.00,,,0.00,Wunderground v.1.15,2013-08-11 18:25:00,
2013-08-11 13:30:00,78.9,66.1,30.00,South,171,3.0,3.0,65,0.00,,,0.00,Wunderground v.1.15,2013-08-11 18:30:00,
2013-08-11 13:35:00,78.9,66.1,30.00,SSW,213,4.0,7.0,65,0.00,,,0.00,Wunderground v.1.15,2013-08-11 18:35:00,
2013-08-11 13:40:00,78.8,66.5,30.00,SW,217,5.0,5.0,66,0.00,,,0.00,Wunderground v.1.15,2013-08-11 18:40:00,
2013-08-11 13:48:00,79.3,65.6,30.00,SSW,203,3.0,5.0,63,0.00,,,0.00,Wunderground v.1.15,2013-08-11 18:48:00,
2013-08-11 13:54:00,79.1,67.6,30.00,SW,218,4.0,6.0,68,0.00,,,0.00,Wunderground v.1.15,2013-08-11 18:54:00,
2013-08-11 14:00:00,79.3,67.4,30.00,SW,219,4.0,6.0,67,0.00,,,0.00,Wunderground v.1.15,2013-08-11 19:00:00,
2013-08-11 14:08:00,79.1,65.0,30.00,SW,227,6.0,6.0,62,0.00,,,0.00,Wunderground v.1.15,2013-08-11 19:08:00,
2013-08-11 14:14:00,78.9,67.0,30.00,SW,225,6.0,6.0,67,0.00,,,0.00,Wunderground v.1.15,2013-08-11 19:14:00,
2013-08-11 14:19:00,79.0,66.7,30.00,SW,223,5.0,8.0,66,0.00,,,0.00,Wunderground v.1.15,2013-08-11 19:19:00,
2013-08-11 14:25:00,79.0,66.7,29.99,SW,223,5.0,9.0,66,0.00,,,0.00,Wunderground v.1.15,2013-08-11 19:25:00,
2013-08-11 14:31:00,78.7,66.8,29.99,SW,225,6.0,6.0,67,0.00,,,0.00,Wunderground v.1.15,2013-08-11 19:31:00,
2013-08-11 14:37:00,78.8,66.9,29.99,SW,234,7.0,12.0,67,0.00,,,0.00,Wunderground v.1.15,2013-08-11 19:37:00,
2013-08-11 14:43:00,79.1,65.9,29.99,SW,229,8.0,9.0,64,0.00,,,0.00,Wunderground v.1.15,2013-08-11 19:43:00,
2013-08-11 14:49:00,79.4,68.8,29.99,SW,221,8.0,12.0,70,0.00,,,0.00,Wunderground v.1.15,2013-08-11 19:49:00,
2013-08-11 14:55:00,79.8,67.9,29.99,SSE,165,6.0,8.0,67,0.00,,,0.00,Wunderground v.1.15,2013-08-11 19:55:00,
2013-08-11 15:01:00,79.8,66.5,29.98,SW,216,6.0,10.0,64,0.00,,,0.00,Wunderground v.1.15,2013-08-11 20:01:00,
2013-08-11 15:06:00,79.5,68.0,29.98,South,190,6.0,10.0,68,0.00,,,0.00,Wunderground v.1.15,2013-08-11 20:06:00,
2013-08-11 15:11:00,79.6,68.1,29.98,South,191,5.0,5.0,68,0.00,,,0.00,Wunderground v.1.15,2013-08-11 20:11:00,
2013-08-11 15:17:00,80.0,66.7,29.98,WSW,237,6.0,11.0,64,0.00,,,0.00,Wunderground v.1.15,2013-08-11 20:17:00,
2013-08-11 15:23:00,80.1,67.7,29.98,SW,224,8.0,9.0,66,0.00,,,0.00,Wunderground v.1.15,2013-08-11 20:23:00,
2013-08-11 15:28:00,80.1,68.2,29.98,SW,221,7.0,9.0,67,0.00,,,0.00,Wunderground v.1.15,2013-08-11 20:28:00,
2013-08-11 15:34:00,79.8,66.5,29.97,SW,232,7.0,9.0,64,0.00,,,0.00,Wunderground v.1.15,2013-08-11 20:34:00,
2013-08-11 15:39:00,79.6,66.3,29.98,SW,228,7.0,9.0,64,0.00,,,0.00,Wunderground v.1.15,2013-08-11 20:39:00,
2013-08-11 15:44:00,79.8,67.9,29.97,SSW,206,6.0,7.0,67,0.00,,,0.00,Wunderground v.1.15,2013-08-11 20:44:00,
2013-08-11 15:50:00,80.2,67.4,29.96,SSW,213,6.0,6.0,65,0.00,,,0.00,Wunderground v.1.15,2013-08-11 20:50:00,
2013-08-11 15:59:00,79.9,67.5,29.97,SW,221,6.0,9.0,66,0.00,,,0.00,Wunderground v.1.15,2013-08-11 20:59:00,
2013-08-11 16:04:00,79.7,66.4,29.97,SW,232,7.0,9.0,64,0.00,,,0.00,Wunderground v.1.15,2013-08-11 21:04:00,
2013-08-11 16:09:00,79.7,68.2,29.96,WSW,237,7.0,9.0,68,0.00,,,0.00,Wunderground v.1.15,2013-08-11 21:09:00,
2013-08-11 16:15:00,80.0,68.1,29.96,SW,223,6.0,7.0,67,0.00,,,0.00,Wunderground v.1.15,2013-08-11 21:15:00,
2013-08-11 16:20:00,80.0,68.1,29.96,SW,225,7.0,7.0,67,0.00,,,0.00,Wunderground v.1.15,2013-08-11 21:20:00,
2013-08-11 16:26:00,80.1,68.6,29.96,SW,221,7.0,11.0,68,0.00,,,0.00,Wunderground v.1.15,2013-08-11 21:26:00,
2013-08-11 16:31:00,80.0,67.6,29.96,SW,229,7.0,7.0,66,0.00,,,0.00,Wunderground v.1.15,2013-08-11 21:31:00,
2013-08-11 16:37:00,80.0,69.3,29.96,SW,229,6.0,7.0,70,0.00,,,0.00,Wunderground v.1.15,2013-08-11 21:37:00,
2013-08-11 16:42:00,80.1,68.2,29.96,SW,219,6.0,10.0,67,0.00,,,0.00,Wunderground v.1.15,2013-08-11 21:42:00,
2013-08-11 16:48:00,79.9,67.5,29.96,WSW,240,8.0,10.0,66,0.00,,,0.00,Wunderground v.1.15,2013-08-11 21:48:00,
2013-08-11 16:54:00,79.7,67.8,29.96,SW,235,8.0,10.0,67,0.00,,,0.00,Wunderground v.1.15,2013-08-11 21:54:00,
2013-08-11 17:00:00,79.6,67.7,29.95,SW,227,7.0,11.0,67,0.00,,,0.00,Wunderground v.1.15,2013-08-11 22:00:00,
2013-08-11 17:05:00,79.4,67.5,29.96,SW,225,8.0,11.0,67,0.00,,,0.00,Wunderground v.1.15,2013-08-11 22:05:00,
2013-08-11 17:11:00,79.1,67.2,29.96,SW,226,10.0,10.0,67,0.00,,,0.00,Wunderground v.1.15,2013-08-11 22:11:00,
2013-08-11 17:16:00,79.1,67.6,29.95,SW,225,8.0,11.0,68,0.00,,,0.00,Wunderground v.1.15,2013-08-11 22:16:00,
2013-08-11 17:22:00,79.6,68.1,29.95,SW,223,6.0,6.0,68,0.00,,,0.00,Wunderground v.1.15,2013-08-11 22:22:00,
2013-08-11 17:28:00,79.8,67.9,29.95,WSW,239,5.0,8.0,67,0.00,,,0.00,Wunderground v.1.15,2013-08-11 22:28:00,
2013-08-11 17:34:00,79.8,67.9,29.95,SW,236,6.0,8.0,67,0.00,,,0.00,Wunderground v.1.15,2013-08-11 22:34:00,
2013-08-11 17:40:00,79.8,67.9,29.94,SW,236,6.0,10.0,67,0.00,,,0.00,Wunderground v.1.15,2013-08-11 22:40:00,
2013-08-11 17:46:00,79.7,67.8,29.94,SW,234,6.0,10.0,67,0.00,,,0.00,Wunderground v.1.15,2013-08-11 22:46:00,
2013-08-11 17:52:00,79.6,68.1,29.94,SW,232,7.0,7.0,68,0.00,,,0.00,Wunderground v.1.15,2013-08-11 22:52:00,
2013-08-11 17:58:00,79.4,67.9,29.93,SW,234,7.0,7.0,68,0.00,,,0.00,Wunderground v.1.15,2013-08-11 22:58:00,
2013-08-11 18:03:00,79.3,67.8,29.93,SW,234,6.0,7.0,68,0.00,,,0.00,Wunderground v.1.15,2013-08-11 23:03:00,
2013-08-11 18:09:00,79.2,67.7,29.93,SW,234,5.0,7.0,68,0.00,,,0.00,Wunderground v.1.15,2013-08-11 23:09:00,
2013-08-11 18:15:00,79.1,68.1,29.94,SW,234,5.0,5.0,69,0.00,,,0.00,Wunderground v.1.15,2013-08-11 23:15:00,
2013-08-11 18:21:00,79.1,68.5,29.93,SW,234,4.0,4.0,70,0.00,,,0.00,Wunderground v.1.15,2013-08-11 23:21:00,
2013-08-11 18:27:00,79.3,69.5,29.93,SW,234,2.0,4.0,72,0.00,,,0.00,Wunderground v.1.15,2013-08-11 23:27:00,
2013-08-11 18:32:00,79.4,69.2,29.93,SW,234,1.0,1.0,71,0.00,,,0.00,Wunderground v.1.15,2013-08-11 23:32:00,
2013-08-11 18:38:00,79.4,68.8,29.93,SW,234,1.0,4.0,70,0.00,,,0.00,Wunderground v.1.15,2013-08-11 23:38:00,
2013-08-11 18:43:00,79.2,69.0,29.93,SW,234,3.0,4.0,71,0.00,,,0.00,Wunderground v.1.15,2013-08-11 23:43:00,
2013-08-11 18:49:00,78.8,69.4,29.93,SW,234,3.0,4.0,73,0.00,,,0.00,Wunderground v.1.15,2013-08-11 23:49:00,
2013-08-11 18:55:00,78.4,69.0,29.93,SW,234,3.0,4.0,73,0.00,,,0.00,Wunderground v.1.15,2013-08-11 23:55:00,
2013-08-11 19:01:00,77.9,68.9,29.93,SW,234,3.0,3.0,74,0.00,,,0.00,Wunderground v.1.15,2013-08-12 00:01:00,
2013-08-11 19:07:00,77.8,68.8,29.93,SW,234,2.0,3.0,74,0.00,,,0.00,Wunderground v.1.15,2013-08-12 00:07:00,
2013-08-11 19:12:00,77.7,68.7,29.93,SW,234,2.0,2.0,74,0.00,,,0.00,Wunderground v.1.15,2013-08-12 00:12:00,
2013-08-11 19:18:00,77.6,69.4,29.93,SW,234,1.0,2.0,76,0.00,,,0.00,Wunderground v.1.15,2013-08-12 00:18:00,
2013-08-11 19:24:00,77.3,69.1,29.93,SW,234,0.0,0.0,76,0.00,,,0.00,Wunderground v.1.15,2013-08-12 00:24:00,
2013-08-11 19:30:00,77.0,69.6,29.93,SW,234,0.0,0.0,78,0.00,,,0.00,Wunderground v.1.15,2013-08-12 00:30:00,
2013-08-11 19:35:00,76.8,68.7,29.93,SW,234,0.0,0.0,76,0.00,,,0.00,Wunderground v.1.15,2013-08-12 00:35:00,
2013-08-11 19:41:00,76.5,68.7,29.93,SW,234,0.0,0.0,77,0.00,,,0.00,Wunderground v.1.15,2013-08-12 00:41:00,
2013-08-11 19:47:00,76.1,68.7,29.93,SW,234,0.0,1.0,78,0.00,,,0.00,Wunderground v.1.15,2013-08-12 00:47:00,
2013-08-11 19:53:00,75.7,68.7,29.93,SW,234,0.0,0.0,79,0.00,,,0.00,Wunderground v.1.15,2013-08-12 00:53:00,